Weather in Kyzyl

Russia / Tyva Republic     51°43′08″N   94°26′15″E
temp.,
°C
wind,
m/s
gust,
m/s
humid.,
%
clouds,
%
prec.,
mm/h
press.,
hPa
HPBL,
m
27 february, sat
sat2701:00−22n2276100 0.0 103825
04:00−22nnw2283100 0.0 103925
07:00−23nnw1287100 0.1 104123
10:00−20nnw1176100 0.0 1040120
13:00−18sse117294 0.0 1038382
16:00−17ne017392 0.0 1036307
19:00−21n018296 0.0 103820
22:00−22n0178100 0.0 104020
28 february, sun
sun2801:00−21wnw1178100 0.0 104120
04:00−25sw018599 0.0 104220
07:00−26ese019098 0.0 104520
10:00−22s1192100 0.0 1044116
13:00−19ssw1185100 0.0 1041323
16:00−18w118576 0.0 1040265
19:00−25nnw119972 0.0 104120
22:00−26ne11958 0.0 104220
1 march, mon
mon101:00−26e009353 0.0 104020
04:00−24sw0090100 0.0 103920
07:00−25s0190100 0.0 103820
10:00−21ssw1186100 0.0 1035152
13:00−18ssw1182100 0.0 1030265
16:00−16wsw1179100 0.0 1027223
19:00−18w1186100 0.0 102720
22:00−18w0084100 0.0 102620
2 march, tue
tue201:00−17wsw1185100 0.0 102420
04:00−18wsw1185100 0.0 102320
07:00−17w1187100 0.0 102323
10:00−15wsw1183100 0.0 1022134
13:00−13ssw1180100 0.0 1020287
16:00−11wsw1182100 0.0 1019239
19:00−15nnw1191100 0.0 102020
22:00−16s0192100 0.0 102120
3 march, wed
wed301:00−17ne1192100 0.0 102120
04:00−14n1189100 0.0 101920
07:00−14w0195100 0.1 101820
10:00−11wnw1193100 0.8 1016122
13:00−9sw2188100 1.2 1014291
16:00−8s1186100 0.0 1013318
19:00−11se1192100 0.0 101421
22:00−11wnw0194100 0.1 101621